Location: Izdebno
(52.6670°N, 16.2170°E)
Time: 04:35:27
(UTC+02:00)

SR - Pass Details

Date: 27 February 2024
Orbit: 577 x 862 km, 66.7° (Epoch: 22 April)

Event Time Altitude Azimuth Distance (km) Brightness Sun altitude
Rises 15:59:57 0° 236° (SW) 3,438 ? 11.7°
Reaches altitude 10° 16:02:31 10° 241° (WSW) 2,492 ? 11.3°
Maximum altitude 16:08:11 53° 318° (NW) 1,019 ? 10.6°
Drops below altitude 10° 16:13:36 10° 35° (NE) 2,379 ? 9.9°
Sets 16:16:01 0° 40° (NE) 3,269 ? 9.5°
